QPF
0.01 0.02 0.02 0.03 0.04 0.04 0.04 0.04 0.03 0.02 0.01 0.01 0.01 0.01 0.01 0.02 0.02 0.02 0.01 0.02 0.02 0.01 0.01 0.01 0.02 0.02 0.02 0.01 0.02 0.01 0.02 0.04 0.03 0.03 0.02 0.03 0.04 0.04 0.03 0.03 0.03 0.02 0.01
0.01 0.01 0.01 0.02 0.02 0.02 0.02 0.03 0.03 0.02 0.01 0.01 0.01 0.01 0.01 0.01 0.01 0.01 0.01 0.02 0.02 0.01 0.01 0.01 0.01 0.01 0.02 0.02 0.01 0.01 0.01 0.03 0.04 0.04 0.02 0.03 0.05 0.06 0.04 0.04 0.03 0.01 0.01
0.01 0.00 0.00 0.01 0.01 0.01 0.01 0.02 0.03 0.03 0.02 0.02 0.01 0.01 0.00 0.01 0.02 0.03 0.02 0.02 0.02 0.02 0.02 0.02 0.02 0.02 0.02 0.02 0.02 0.02 0.02 0.03 0.04 0.04 0.03 0.02 0.02 0.04 0.03 0.02 0.01 0.01 0.01
0.01 0.01 0.00 0.01 0.01 0.01 0.01 0.01 0.03 0.04 0.04 0.03 0.02 0.01 0.01 0.01 0.01 0.02 0.02 0.02 0.02 0.02 0.03 0.02 0.02 0.02 0.02 0.02 0.02 0.02 0.02 0.03 0.03 0.04 0.03 0.02 0.01 0.01 0.01 0.01 0.01 0.01 0.01
0.01 0.01 0.00 0.01 0.01 0.01 0.02 0.02 0.02 0.03 0.03 0.03 0.02 0.02 0.02 0.01 0.00 0.01 0.01 0.02 0.02 0.02 0.02 0.02 0.02 0.02 0.02 0.02 0.02 0.03 0.02 0.03 0.04 0.04 0.03 0.02 0.01 0.01 0.01 0.01 0.01 0.01 0.01
0.01 0.01 0.01 0.01 0.02 0.02 0.02 0.02 0.03 0.03 0.03 0.03 0.02 0.03 0.02 0.01 0.01 0.01 0.01 0.01 0.01 0.01 0.01 0.01 0.01 0.01 0.01 0.01 0.01 0.01 0.02 0.03 0.04 0.04 0.03 0.02 0.01 0.01 0.01 0.01 0.01 0.02 0.02
0.01 0.01 0.01 0.01 0.01 0.01 0.02 0.02 0.03 0.03 0.02 0.02 0.03 0.02 0.01 0.01 0.01 0.01 0.01 0.01 0.01 0.01 0.01 0.01 0.01 0.01 0.01 0.01 0.01 0.01 0.01 0.02 0.03 0.03 0.03 0.03 0.02 0.02 0.02 0.02 0.02 0.02 0.03
0.01 0.00 0.00 0.00 0.01 0.01 0.01 0.01 0.02 0.02 0.02 0.02 0.02 0.02 0.02 0.02 0.01 0.01 0.01 0.01 0.01 0.01 0.01 0.01 0.01 0.01 0.01 0.01 0.01 0.01 0.01 0.02 0.03 0.03 0.03 0.04 0.03 0.02 0.02 0.02 0.02 0.03 0.03
0.01 0.02 0.02 0.02 0.02 0.02 0.01 0.02 0.02 0.03 0.02 0.02 0.01 0.02 0.02 0.02 0.01 0.01 0.01 0.01 0.01 0.00 0.00 0.01 0.01 0.01 0.01 0.02 0.02 0.01 0.02 0.02 0.02 0.04 0.05 0.05 0.05 0.04 0.03 0.02 0.02 0.02 0.02
0.03 0.03 0.04 0.05 0.04 0.03 0.03 0.04 0.04 0.04 0.04 0.02 0.01 0.02 0.02 0.02 0.02 0.02 0.01 0.02 0.01 0.01 0.01 0.01 0.01 0.01 0.01 0.01 0.01 0.01 0.02 0.02 0.02 0.02 0.03 0.05 0.06 0.05 0.04 0.04 0.03 0.02 0.02
0.03 0.04 0.04 0.06 0.07 0.06 0.05 0.05 0.05 0.05 0.04 0.03 0.03 0.02 0.02 0.02 0.02 0.02 0.02 0.01 0.01 0.01 0.01 0.00 0.01 0.01 0.02 0.02 0.02 0.01 0.01 0.02 0.01 0.02 0.02 0.02 0.03 0.04 0.05 0.05 0.05 0.04 0.03
0.03 0.02 0.04 0.05 0.07 0.06 0.05 0.03 0.03 0.04 0.04 0.04 0.04 0.04 0.03 0.03 0.02 0.01 0.01 0.01 0.01 0.01 0.01 0.01 0.01 0.01 0.02 0.03 0.04 0.04 0.03 0.02 0.01 0.01 0.01 0.01 0.02 0.02 0.03 0.03 0.04 0.04 0.03
0.01 0.01 0.02 0.04 0.05 0.05 0.04 0.04 0.04 0.04 0.04 0.03 0.03 0.03 0.03 0.02 0.02 0.02 0.02 0.01 0.01 0.01 0.02 0.02 0.01 0.02 0.02 0.03 0.04 0.06 0.08 0.06 0.04 0.03 0.02 0.01 0.02 0.02 0.02 0.03 0.03 0.03 0.04
0.01 0.01 0.01 0.01 0.01 0.02 0.03 0.03 0.03 0.03 0.03 0.03 0.03 0.03 0.03 0.03 0.02 0.02 0.02 0.02 0.02 0.02 0.02 0.01 0.02 0.02 0.03 0.04 0.05 0.05 0.05 0.07 0.07 0.06 0.05 0.04 0.03 0.02 0.03 0.03 0.04 0.05 0.05
0.01 0.01 0.01 0.01 0.01 0.01 0.01 0.02 0.02 0.02 0.02 0.03 0.04 0.04 0.04 0.03 0.03 0.02 0.02 0.02 0.03 0.03 0.02 0.01 0.01 0.02 0.02 0.03 0.03 0.05 0.05 0.06 0.06 0.05 0.04 0.04 0.04 0.05 0.05 0.04 0.04 0.05 0.06
0.01 0.01 0.01 0.01 0.01 0.01 0.01 0.01 0.02 0.02 0.02 0.02 0.02 0.02 0.02 0.02 0.02 0.02 0.02 0.03 0.03 0.03 0.02 0.02 0.01 0.02 0.02 0.02 0.02 0.02 0.03 0.04 0.05 0.06 0.04 0.03 0.04 0.04 0.05 0.06 0.06 0.05 0.06
0.01 0.01 0.01 0.01 0.01 0.01 0.01 0.01 0.01 0.01 0.01 0.01 0.02 0.02 0.03 0.03 0.02 0.03 0.03 0.03 0.03 0.02 0.01 0.01 0.01 0.01 0.01 0.01 0.01 0.02 0.02 0.02 0.03 0.04 0.04 0.03 0.02 0.03 0.03 0.04 0.05 0.05 0.05
0.00 0.00 0.01 0.01 0.01 0.01 0.01 0.02 0.02 0.02 0.01 0.01 0.01 0.01 0.02 0.02 0.03 0.02 0.02 0.02 0.02 0.01 0.01 0.01 0.01 0.01 0.01 0.01 0.01 0.02 0.02 0.02 0.02 0.03 0.04 0.03 0.02 0.01 0.02 0.02 0.03 0.03 0.04
0.00 0.00 0.00 0.00 0.01 0.01 0.01 0.02 0.02 0.02 0.02 0.02 0.02 0.02 0.02 0.02 0.02 0.02 0.02 0.02 0.02 0.02 0.01 0.01 0.01 0.01 0.01 0.02 0.02 0.03 0.03 0.02 0.02 0.02 0.03 0.04 0.03 0.03 0.02 0.01 0.01 0.02 0.03
0.00 0.00 0.00 0.00 0.00 0.00 0.01 0.01 0.02 0.02 0.02 0.02 0.02 0.01 0.02 0.01 0.01 0.02 0.02 0.02 0.02 0.02 0.02 0.02 0.02 0.02 0.02 0.03 0.04 0.05 0.04 0.02 0.01 0.01 0.02 0.02 0.03 0.04 0.04 0.02 0.02 0.01 0.02
0.00 0.00 0.00 0.00 0.00 0.00 0.00 0.01 0.01 0.01 0.02 0.03 0.02 0.02 0.02 0.02 0.02 0.01 0.02 0.01 0.02 0.02 0.03 0.03 0.03 0.03 0.04 0.04 0.05 0.05 0.04 0.03 0.01 0.01 0.01 0.01 0.02 0.03 0.03 0.03 0.02 0.02 0.02
0.00 0.01 0.00 0.00 0.00 0.00 0.00 0.00 0.01 0.01 0.01 0.02 0.02 0.02 0.02 0.01 0.01 0.01 0.01 0.01 0.01 0.02 0.03 0.04 0.04 0.04 0.04 0.04 0.04 0.04 0.04 0.02 0.01 0.01 0.01 0.02 0.02 0.03 0.02 0.02 0.01 0.02 0.02
0.01 0.00 0.01 0.00 0.00 0.00 0.00 0.00 0.01 0.01 0.02 0.02 0.02 0.02 0.02 0.02 0.01 0.01 0.01 0.01 0.02 0.02 0.03 0.04 0.04 0.04 0.03 0.03 0.04 0.04 0.04 0.02 0.01 0.01 0.02 0.02 0.02 0.02 0.02 0.02 0.03 0.02 0.02
0.01 0.00 0.00 0.00 0.00 0.01 0.01 0.00 0.00 0.00 0.01 0.03 0.04 0.03 0.03 0.02 0.02 0.02 0.02 0.02 0.02 0.03 0.03 0.03 0.04 0.03 0.03 0.02 0.02 0.03 0.03 0.02 0.01 0.01 0.02 0.02 0.02 0.02 0.03 0.04 0.03 0.03 0.02
0.01 0.01 0.01 0.01 0.01 0.01 0.01 0.00 0.00 0.00 0.00 0.01 0.01 0.02 0.03 0.03 0.03 0.02 0.02 0.02 0.03 0.03 0.04 0.04 0.03 0.03 0.03 0.04 0.04 0.03 0.02 0.02 0.02 0.03 0.02 0.02 0.02 0.02 0.03 0.04 0.03 0.03 0.03
0.03 0.02 0.01 0.01 0.02 0.01 0.02 0.01 0.00 0.00 0.00 0.01 0.01 0.01 0.01 0.02 0.03 0.02 0.02 0.02 0.02 0.03 0.03 0.03 0.03 0.04 0.04 0.04 0.03 0.03 0.03 0.03 0.04 0.03 0.02 0.02 0.02 0.02 0.03 0.03 0.03 0.03 0.03
MSLP
1009.00 1009.20 1009.40 1009.61 1009.82 1010.05 1010.33 1010.67 1011.09 1011.55 1012.05 1012.52 1012.94 1013.28 1013.53 1013.68 1013.78 1013.85 1013.94 1014.09 1014.30 1014.60 1014.95 1015.33 1015.72 1016.09 1016.41 1016.69 1016.92 1017.11 1017.29 1017.44 1017.59 1017.71 1017.80 1017.85 1017.83 1017.74 1017.58 1017.34 1017.04 1016.71 1016.35
1008.39 1008.61 1008.84 1009.06 1009.28 1009.52 1009.80 1010.15 1010.58 1011.09 1011.63 1012.18 1012.67 1013.08 1013.38 1013.58 1013.69 1013.77 1013.86 1014.01 1014.23 1014.53 1014.91 1015.33 1015.76 1016.16 1016.50 1016.79 1017.02 1017.21 1017.38 1017.54 1017.72 1017.89 1018.06 1018.20 1018.29 1018.31 1018.24 1018.09 1017.86 1017.57 1017.23
1007.66 1007.87 1008.12 1008.36 1008.58 1008.83 1009.11 1009.48 1009.94 1010.50 1011.11 1011.73 1012.31 1012.80 1013.18 1013.43 1013.58 1013.68 1013.77 1013.92 1014.13 1014.44 1014.83 1015.26 1015.70 1016.11 1016.46 1016.75 1016.97 1017.15 1017.32 1017.49 1017.70 1017.93 1018.17 1018.41 1018.60 1018.73 1018.77 1018.72 1018.56 1018.33 1018.04
1006.86 1007.06 1007.30 1007.54 1007.77 1008.01 1008.30 1008.68 1009.17 1009.77 1010.44 1011.15 1011.82 1012.41 1012.87 1013.19 1013.40 1013.53 1013.64 1013.79 1014.00 1014.30 1014.67 1015.10 1015.54 1015.94 1016.29 1016.57 1016.79 1016.97 1017.14 1017.33 1017.56 1017.84 1018.15 1018.47 1018.76 1018.99 1019.13 1019.17 1019.11 1018.95 1018.72
1006.13 1006.29 1006.51 1006.72 1006.93 1007.15 1007.42 1007.79 1008.28 1008.91 1009.64 1010.42 1011.19 1011.87 1012.43 1012.84 1013.11 1013.29 1013.43 1013.58 1013.79 1014.08 1014.44 1014.85 1015.28 1015.68 1016.02 1016.30 1016.52 1016.71 1016.89 1017.10 1017.36 1017.68 1018.04 1018.42 1018.79 1019.10 1019.33 1019.45 1019.47 1019.40 1019.24
1005.57 1005.68 1005.85 1006.01 1006.17 1006.33 1006.55 1006.88 1007.36 1007.98 1008.74 1009.57 1010.41 1011.18 1011.84 1012.34 1012.69 1012.93 1013.11 1013.28 1013.49 1013.77 1014.12 1014.52 1014.94 1015.33 1015.68 1015.97 1016.20 1016.40 1016.60 1016.84 1017.12 1017.47 1017.87 1018.29 1018.70 1019.07 1019.36 1019.55 1019.65 1019.65 1019.57
1005.28 1005.33 1005.43 1005.52 1005.59 1005.67 1005.81 1006.05 1006.46 1007.05 1007.80 1008.64 1009.53 1010.37 1011.10 1011.69 1012.13 1012.44 1012.67 1012.87 1013.10 1013.38 1013.73 1014.12 1014.54 1014.94 1015.30 1015.61 1015.87 1016.09 1016.31 1016.56 1016.87 1017.23 1017.64 1018.08 1018.51 1018.91 1019.24 1019.49 1019.64 1019.72 1019.72
1005.28 1005.28 1005.31 1005.31 1005.28 1005.25 1005.26 1005.39 1005.70 1006.20 1006.89 1007.72 1008.61 1009.48 1010.27 1010.93 1011.44 1011.81 1012.10 1012.35 1012.61 1012.91 1013.27 1013.67 1014.10 1014.51 1014.90 1015.23 1015.52 1015.77 1016.02 1016.28 1016.59 1016.95 1017.35 1017.79 1018.22 1018.63 1018.99 1019.27 1019.48 1019.63 1019.71
1005.55 1005.51 1005.48 1005.40 1005.26 1005.10 1004.98 1004.97 1005.14 1005.53 1006.12 1006.87 1007.72 1008.59 1009.40 1010.10 1010.66 1011.10 1011.44 1011.74 1012.03 1012.36 1012.74 1013.16 1013.61 1014.05 1014.46 1014.83 1015.14 1015.42 1015.69 1015.96 1016.27 1016.62 1017.00 1017.42 1017.84 1018.25 1018.62 1018.94 1019.20 1019.42 1019.58
1006.00 1005.95 1005.88 1005.73 1005.49 1005.21 1004.95 1004.80 1004.83 1005.07 1005.54 1006.19 1006.96 1007.78 1008.56 1009.26 1009.85 1010.32 1010.71 1011.05 1011.38 1011.75 1012.16 1012.60 1013.08 1013.54 1013.98 1014.38 1014.72 1015.02 1015.30 1015.58 1015.87 1016.20 1016.57 1016.96 1017.37 1017.77 1018.16 1018.51 1018.83 1019.12 1019.37
1006.52 1006.49 1006.40 1006.20 1005.90 1005.53 1005.16 1004.88 1004.77 1004.88 1005.20 1005.72 1006.38 1007.10 1007.82 1008.48 1009.05 1009.53 1009.94 1010.31 1010.67 1011.07 1011.51 1011.98 1012.48 1012.97 1013.44 1013.85 1014.22 1014.53 1014.81 1015.09 1015.37 1015.69 1016.03 1016.41 1016.80 1017.21 1017.62 1018.01 1018.39 1018.75 1019.09
1006.99 1007.00 1006.92 1006.71 1006.38 1005.96 1005.53 1005.16 1004.94 1004.92 1005.11 1005.48 1006.00 1006.60 1007.21 1007.79 1008.31 1008.76 1009.15 1009.53 1009.91 1010.33 1010.79 1011.29 1011.81 1012.32 1012.81 1013.24 1013.62 1013.94 1014.23 1014.49 1014.77 1015.07 1015.40 1015.77 1016.16 1016.58 1017.02 1017.46 1017.89 1018.33 1018.75
1007.36 1007.41 1007.35 1007.16 1006.84 1006.41 1005.96 1005.55 1005.27 1005.15 1005.22 1005.45 1005.82 1006.27 1006.75 1007.21 1007.63 1008.02 1008.38 1008.74 1009.12 1009.55 1010.02 1010.54 1011.07 1011.60 1012.09 1012.54 1012.92 1013.25 1013.54 1013.80 1014.07 1014.36 1014.69 1015.06 1015.46 1015.90 1016.36 1016.84 1017.33 1017.83 1018.32
1007.61 1007.68 1007.65 1007.49 1007.20 1006.81 1006.38 1005.98 1005.68 1005.50 1005.47 1005.59 1005.81 1006.09 1006.41 1006.73 1007.03 1007.32 1007.62 1007.93 1008.30 1008.72 1009.20 1009.72 1010.27 1010.81 1011.31 1011.76 1012.15 1012.48 1012.77 1013.04 1013.31 1013.61 1013.94 1014.31 1014.72 1015.17 1015.66 1016.16 1016.69 1017.23 1017.77
1007.75 1007.82 1007.81 1007.68 1007.44 1007.12 1006.75 1006.40 1006.10 1005.90 1005.81 1005.81 1005.89 1006.02 1006.17 1006.33 1006.49 1006.67 1006.87 1007.13 1007.46 1007.87 1008.34 1008.87 1009.42 1009.96 1010.47 1010.93 1011.33 1011.67 1011.97 1012.25 1012.53 1012.83 1013.16 1013.54 1013.96 1014.42 1014.91 1015.43 1015.96 1016.52 1017.08
1007.86 1007.89 1007.86 1007.75 1007.57 1007.31 1007.03 1006.74 1006.49 1006.30 1006.16 1006.07 1006.02 1005.99 1005.98 1005.97 1005.99 1006.04 1006.15 1006.34 1006.63 1007.00 1007.46 1007.98 1008.53 1009.08 1009.60 1010.06 1010.47 1010.83 1011.14 1011.44 1011.73 1012.05 1012.39 1012.78 1013.19 1013.65 1014.13 1014.63 1015.15 1015.69 1016.24
1007.97 1007.93 1007.86 1007.76 1007.62 1007.43 1007.23 1007.02 1006.82 1006.64 1006.47 1006.31 1006.14 1005.98 1005.81 1005.65 1005.52 1005.44 1005.46 1005.57 1005.80 1006.14 1006.58 1007.09 1007.63 1008.18 1008.70 1009.17 1009.59 1009.97 1010.31 1010.63 1010.94 1011.28 1011.64 1012.02 1012.43 1012.87 1013.32 1013.79 1014.28 1014.78 1015.29
1008.13 1008.00 1007.88 1007.76 1007.64 1007.52 1007.38 1007.24 1007.09 1006.92 1006.73 1006.50 1006.24 1005.94 1005.63 1005.33 1005.07 1004.89 1004.80 1004.84 1005.01 1005.31 1005.72 1006.20 1006.73 1007.26 1007.78 1008.26 1008.69 1009.09 1009.45 1009.80 1010.15 1010.51 1010.88 1011.28 1011.68 1012.09 1012.51 1012.94 1013.37 1013.82 1014.29
1008.35 1008.12 1007.94 1007.80 1007.70 1007.61 1007.52 1007.43 1007.32 1007.16 1006.94 1006.65 1006.30 1005.90 1005.47 1005.05 1004.67 1004.38 1004.21 1004.17 1004.28 1004.52 1004.88 1005.33 1005.82 1006.33 1006.83 1007.30 1007.75 1008.16 1008.56 1008.94 1009.32 1009.72 1010.12 1010.52 1010.92 1011.32 1011.71 1012.10 1012.48 1012.88 1013.30
1008.58 1008.29 1008.07 1007.91 1007.81 1007.75 1007.70 1007.64 1007.54 1007.37 1007.13 1006.79 1006.36 1005.87 1005.34 1004.82 1004.35 1003.97 1003.71 1003.60 1003.64 1003.82 1004.11 1004.50 1004.94 1005.40 1005.86 1006.32 1006.75 1007.18 1007.60 1008.02 1008.44 1008.88 1009.31 1009.74 1010.15 1010.55 1010.93 1011.29 1011.65 1012.01 1012.40
1008.79 1008.48 1008.24 1008.09 1008.00 1007.96 1007.94 1007.89 1007.79 1007.61 1007.32 1006.93 1006.44 1005.88 1005.27 1004.68 1004.13 1003.67 1003.35 1003.16 1003.12 1003.22 1003.43 1003.73 1004.09 1004.48 1004.89 1005.30 1005.72 1006.14 1006.58 1007.03 1007.50 1007.97 1008.45 1008.92 1009.36 1009.78 1010.17 1010.53 1010.88 1011.23 1011.61
1008.95 1008.66 1008.46 1008.33 1008.27 1008.25 1008.24 1008.19 1008.08 1007.88 1007.56 1007.13 1006.59 1005.97 1005.31 1004.66 1004.06 1003.55 1003.15 1002.89 1002.77 1002.77 1002.88 1003.07 1003.33 1003.62 1003.95 1004.30 1004.67 1005.08 1005.52 1005.99 1006.50 1007.02 1007.55 1008.06 1008.55 1009.01 1009.43 1009.81 1010.18 1010.55 1010.94
1009.02 1008.82 1008.68 1008.61 1008.59 1008.60 1008.59 1008.55 1008.42 1008.19 1007.85 1007.38 1006.81 1006.17 1005.48 1004.80 1004.17 1003.61 1003.16 1002.83 1002.62 1002.52 1002.51 1002.58 1002.70 1002.88 1003.10 1003.37 1003.68 1004.05 1004.48 1004.96 1005.49 1006.04 1006.62 1007.18 1007.72 1008.22 1008.68 1009.11 1009.52 1009.92 1010.33
1009.03 1008.94 1008.90 1008.91 1008.94 1008.98 1008.98 1008.93 1008.79 1008.54 1008.18 1007.70 1007.13 1006.48 1005.80 1005.12 1004.47 1003.89 1003.40 1003.01 1002.71 1002.50 1002.36 1002.30 1002.29 1002.33 1002.43 1002.60 1002.83 1003.14 1003.53 1004.00 1004.53 1005.11 1005.71 1006.31 1006.88 1007.43 1007.93 1008.40 1008.85 1009.29 1009.73
1009.01 1009.05 1009.12 1009.21 1009.29 1009.35 1009.36 1009.31 1009.16 1008.91 1008.54 1008.07 1007.52 1006.90 1006.25 1005.59 1004.97 1004.39 1003.87 1003.43 1003.06 1002.74 1002.49 1002.29 1002.14 1002.05 1002.02 1002.07 1002.21 1002.45 1002.78 1003.21 1003.72 1004.28 1004.88 1005.49 1006.08 1006.64 1007.17 1007.66 1008.13 1008.59 1009.06
1009.03 1009.19 1009.35 1009.49 1009.61 1009.69 1009.71 1009.65 1009.50 1009.25 1008.91 1008.47 1007.97 1007.40 1006.81 1006.22 1005.64 1005.08 1004.57 1004.10 1003.66 1003.27 1002.92 1002.60 1002.32 1002.10 1001.96 1001.89 1001.93 1002.08 1002.33 1002.70 1003.15 1003.66 1004.22 1004.79 1005.36 1005.90 1006.41 1006.89 1007.35 1007.81 1008.28
Thickness
5715 5715 5714 5713 5712 5710 5709 5707 5705 5703 5701 5699 5696 5694 5691 5691 5690 5689 5688 5687 5686 5685 5684 5682 5680 5679 5678 5676 5675 5673 5672 5670 5669 5667 5666 5667 5668 5669 5670 5671 5671 5672 5672
5710 5711 5711 5710 5709 5707 5706 5704 5703 5701 5699 5697 5695 5692 5689 5687 5686 5685 5684 5683 5681 5680 5679 5677 5675 5674 5672 5671 5670 5669 5666 5664 5663 5661 5658 5656 5658 5662 5664 5664 5665 5666 5667
5709 5708 5707 5707 5706 5705 5704 5703 5701 5699 5697 5695 5691 5688 5685 5683 5681 5680 5679 5678 5677 5675 5674 5673 5671 5669 5667 5666 5664 5664 5662 5659 5657 5657 5655 5651 5650 5651 5656 5657 5659 5660 5661
5710 5708 5707 5705 5704 5704 5703 5701 5699 5696 5694 5692 5688 5685 5681 5677 5676 5675 5675 5674 5673 5671 5669 5668 5666 5664 5663 5661 5660 5659 5657 5656 5653 5652 5651 5650 5649 5647 5647 5650 5652 5654 5655
5709 5707 5706 5705 5703 5702 5700 5698 5696 5693 5691 5689 5685 5682 5678 5675 5673 5672 5670 5669 5668 5666 5665 5663 5661 5659 5658 5656 5655 5654 5652 5651 5650 5648 5647 5646 5644 5644 5643 5642 5645 5647 5650
5708 5707 5705 5703 5700 5699 5697 5694 5692 5689 5687 5685 5682 5679 5675 5672 5669 5667 5665 5663 5662 5661 5660 5659 5657 5655 5654 5652 5651 5650 5648 5647 5646 5645 5644 5643 5642 5641 5639 5638 5638 5640 5643
5706 5704 5701 5699 5697 5695 5693 5691 5688 5685 5683 5681 5678 5676 5673 5669 5666 5664 5661 5659 5657 5656 5656 5655 5653 5652 5650 5649 5647 5646 5644 5643 5642 5641 5641 5640 5641 5640 5638 5636 5634 5635 5637
5703 5701 5700 5697 5695 5693 5690 5687 5685 5682 5680 5678 5675 5672 5669 5666 5663 5661 5659 5656 5654 5653 5653 5651 5650 5649 5647 5645 5644 5642 5641 5639 5638 5638 5637 5637 5638 5637 5637 5635 5632 5630 5631
5699 5698 5697 5695 5693 5690 5688 5686 5683 5679 5677 5675 5672 5669 5666 5662 5660 5657 5655 5653 5652 5651 5649 5648 5647 5645 5644 5642 5640 5638 5636 5635 5634 5634 5633 5633 5633 5633 5633 5632 5631 5629 5627
5694 5693 5692 5691 5689 5688 5686 5683 5680 5677 5674 5672 5669 5666 5662 5659 5656 5653 5651 5649 5648 5647 5646 5644 5643 5641 5640 5638 5636 5634 5633 5631 5630 5629 5628 5628 5628 5629 5628 5628 5627 5627 5626
5689 5688 5687 5686 5685 5683 5681 5679 5676 5673 5670 5668 5665 5662 5659 5656 5653 5650 5648 5646 5644 5643 5641 5640 5638 5637 5636 5634 5632 5631 5629 5627 5626 5625 5624 5623 5623 5623 5623 5622 5622 5621 5621
5685 5683 5682 5680 5678 5676 5675 5673 5671 5668 5665 5663 5660 5657 5655 5652 5649 5646 5645 5643 5641 5639 5637 5635 5634 5632 5631 5630 5628 5627 5625 5624 5622 5621 5620 5619 5619 5618 5618 5617 5617 5617 5617
5679 5677 5675 5673 5671 5669 5668 5666 5664 5663 5661 5658 5654 5652 5650 5647 5645 5643 5641 5639 5637 5635 5633 5631 5629 5628 5627 5626 5624 5622 5621 5620 5619 5618 5617 5616 5615 5614 5613 5613 5612 5612 5613
5672 5671 5669 5667 5665 5663 5662 5660 5658 5657 5655 5652 5649 5647 5645 5643 5641 5639 5636 5635 5633 5631 5629 5627 5625 5624 5623 5621 5620 5618 5617 5616 5615 5614 5613 5613 5612 5611 5610 5609 5608 5608 5607
5666 5665 5663 5661 5660 5658 5656 5654 5653 5651 5650 5647 5644 5642 5640 5638 5636 5634 5631 5630 5628 5626 5624 5622 5620 5619 5617 5617 5615 5614 5612 5611 5610 5609 5609 5608 5608 5608 5607 5606 5605 5603 5602
5661 5660 5658 5656 5654 5652 5650 5649 5647 5646 5644 5641 5639 5637 5634 5632 5630 5628 5626 5623 5621 5620 5618 5616 5614 5612 5613 5612 5612 5610 5608 5606 5605 5604 5604 5603 5603 5603 5603 5603 5603 5601 5599
5657 5655 5653 5650 5649 5647 5645 5643 5642 5640 5637 5635 5633 5631 5628 5625 5624 5622 5619 5617 5615 5613 5611 5610 5608 5606 5606 5606 5606 5605 5603 5601 5600 5599 5597 5598 5598 5597 5597 5597 5597 5596 5596
5652 5650 5647 5645 5643 5641 5640 5638 5635 5633 5630 5628 5626 5624 5621 5619 5616 5614 5612 5610 5608 5606 5604 5603 5602 5600 5600 5600 5600 5599 5596 5595 5594 5593 5592 5591 5591 5592 5591 5590 5590 5589 5590
5647 5644 5642 5639 5637 5634 5632 5629 5627 5625 5622 5620 5618 5616 5614 5611 5609 5606 5605 5603 5601 5599 5597 5596 5595 5594 5594 5594 5594 5592 5589 5587 5587 5586 5586 5585 5585 5586 5586 5584 5583 5582 5584
5641 5638 5636 5633 5630 5627 5624 5621 5618 5616 5614 5613 5611 5609 5607 5604 5602 5600 5598 5596 5594 5592 5591 5590 5589 5588 5588 5589 5588 5586 5583 5579 5578 5578 5579 5579 5579 5580 5579 5577 5576 5576 5577
5634 5632 5628 5625 5622 5620 5617 5613 5610 5608 5608 5606 5604 5602 5599 5597 5595 5592 5591 5588 5586 5585 5583 5582 5581 5580 5581 5581 5580 5579 5575 5572 5570 5570 5571 5572 5573 5573 5572 5571 5570 5571 5571
5626 5624 5620 5617 5615 5612 5609 5605 5603 5602 5601 5598 5596 5593 5591 5589 5588 5584 5582 5580 5578 5576 5574 5573 5571 5571 5571 5571 5571 5570 5568 5567 5563 5562 5563 5564 5565 5565 5565 5564 5564 5564 5563
5618 5616 5613 5610 5607 5604 5601 5598 5596 5594 5592 5589 5586 5584 5582 5580 5578 5575 5573 5571 5569 5567 5565 5564 5562 5561 5561 5561 5561 5560 5559 5557 5555 5555 5555 5556 5556 5556 5555 5556 5556 5555 5553
5610 5608 5605 5602 5599 5596 5594 5591 5589 5586 5583 5581 5578 5576 5573 5571 5569 5567 5565 5563 5561 5559 5557 5555 5553 5552 5551 5550 5550 5550 5549 5548 5546 5544 5544 5544 5545 5545 5545 5546 5545 5545 5545
5601 5600 5597 5594 5591 5588 5586 5584 5581 5578 5575 5572 5570 5567 5565 5562 5559 5558 5556 5555 5554 5552 5550 5548 5546 5544 5543 5543 5543 5541 5540 5539 5538 5535 5533 5532 5532 5532 5533 5533 5534 5534 5534
5592 5591 5589 5586 5583 5580 5578 5576 5574 5571 5567 5564 5561 5559 5557 5554 5551 5548 5546 5545 5544 5544 5542 5541 5539 5537 5537 5536 5534 5533 5532 5530 5529 5526 5522 5521 5520 5521 5521 5522 5522 5523 5523